Time,TemperatureF,DewpointF,PressureIn,WindDirection,WindDirectionDegrees,WindSpeedMPH,WindSpeedGustMPH,Humidity,HourlyPrecipIn,Conditions,Clouds,dailyrainin,SoftwareType,DateUTC
2013-06-14 00:02:00,82.0,-99.9,29.93,West,263,11.0,16.0,-999,-99.99,,,-99.99,,2013-06-14 04:02:00,
2013-06-14 00:12:00,82.0,-99.9,29.93,West,264,13.0,15.0,-999,-99.99,,,-99.99,,2013-06-14 04:12:00,
2013-06-14 00:23:00,82.0,-99.9,29.93,WSW,255,11.0,14.0,-999,-99.99,,,-99.99,,2013-06-14 04:23:00,
2013-06-14 00:33:00,81.0,-99.9,29.93,WSW,242,9.0,11.0,-999,-99.99,,,-99.99,,2013-06-14 04:33:00,
2013-06-14 00:43:00,81.0,-99.9,29.92,WSW,242,13.0,15.0,-999,-99.99,,,-99.99,,2013-06-14 04:43:00,
2013-06-14 00:53:00,81.0,-99.9,29.93,WSW,254,12.0,15.0,-999,-99.99,,,-99.99,,2013-06-14 04:53:00,
2013-06-14 01:02:00,81.0,-99.9,29.93,WSW,254,12.0,15.0,-999,-99.99,,,-99.99,,2013-06-14 05:02:00,
2013-06-14 01:12:00,80.0,-99.9,29.92,WSW,253,11.0,14.0,-999,-99.99,,,-99.99,,2013-06-14 05:12:00,
2013-06-14 01:22:00,80.0,-99.9,29.92,WSW,244,12.0,16.0,-999,-99.99,,,-99.99,,2013-06-14 05:22:00,
2013-06-14 01:34:00,80.0,-99.9,29.91,WSW,249,11.0,15.0,-999,-99.99,,,-99.99,,2013-06-14 05:34:00,
2013-06-14 01:43:00,80.0,-99.9,29.91,WSW,246,11.0,15.0,-999,-99.99,,,-99.99,,2013-06-14 05:43:00,
2013-06-14 01:52:00,80.0,-99.9,29.91,WSW,241,13.0,16.0,-999,-99.99,,,-99.99,,2013-06-14 05:52:00,
2013-06-14 02:02:00,80.0,-99.9,29.91,WSW,241,13.0,16.0,-999,-99.99,,,-99.99,,2013-06-14 06:02:00,
2013-06-14 02:12:00,80.0,-99.9,29.91,WSW,250,13.0,16.0,-999,-99.99,,,-99.99,,2013-06-14 06:12:00,
2013-06-14 02:23:00,80.0,-99.9,29.91,WSW,250,13.0,16.0,-999,-99.99,,,-99.99,,2013-06-14 06:23:00,
2013-06-14 02:33:00,80.0,-99.9,29.91,WSW,250,14.0,18.0,-999,-99.99,,,-99.99,,2013-06-14 06:33:00,
2013-06-14 02:44:00,80.0,-99.9,29.90,WSW,248,13.0,18.0,-999,-99.99,,,-99.99,,2013-06-14 06:44:00,
2013-06-14 02:52:00,79.0,-99.9,29.89,WSW,241,14.0,17.0,-999,-99.99,,,-99.99,,2013-06-14 06:52:00,
2013-06-14 03:02:00,79.0,-99.9,29.88,WSW,237,13.0,17.0,-999,-99.99,,,-99.99,,2013-06-14 07:02:00,
2013-06-14 03:12:00,79.0,-99.9,29.87,WSW,237,15.0,18.0,-999,-99.99,,,-99.99,,2013-06-14 07:12:00,
2013-06-14 03:22:00,79.0,-99.9,29.87,SW,235,15.0,20.0,-999,-99.99,,,-99.99,,2013-06-14 07:22:00,
2013-06-14 03:33:00,79.0,-99.9,29.87,WSW,238,15.0,17.0,-999,-99.99,,,-99.99,,2013-06-14 07:33:00,
2013-06-14 03:44:00,79.0,-99.9,29.87,WSW,239,15.0,18.0,-999,-99.99,,,-99.99,,2013-06-14 07:44:00,
2013-06-14 03:53:00,79.0,-99.9,29.87,WSW,244,15.0,19.0,-999,-99.99,,,-99.99,,2013-06-14 07:53:00,
2013-06-14 04:02:00,79.0,-99.9,29.86,WSW,238,15.0,19.0,-999,-99.99,,,-99.99,,2013-06-14 08:02:00,
2013-06-14 04:12:00,79.0,-99.9,29.86,WSW,242,16.0,19.0,-999,-99.99,,,-99.99,,2013-06-14 08:12:00,
2013-06-14 04:23:00,79.0,-99.9,29.86,WSW,241,16.0,20.0,-999,-99.99,,,-99.99,,2013-06-14 08:23:00,
2013-06-14 04:33:00,79.0,-99.9,29.85,SW,231,15.0,20.0,-999,-99.99,,,-99.99,,2013-06-14 08:33:00,
2013-06-14 04:43:00,79.0,-99.9,29.85,SW,226,14.0,20.0,-999,-99.99,,,-99.99,,2013-06-14 08:43:00,
2013-06-14 04:53:00,79.0,-99.9,29.85,SW,226,15.0,19.0,-999,-99.99,,,-99.99,,2013-06-14 08:53:00,
2013-06-14 05:02:00,79.0,-99.9,29.85,SW,227,13.0,18.0,-999,-99.99,,,-99.99,,2013-06-14 09:02:00,
2013-06-14 05:12:00,79.0,-99.9,29.90,WNW,289,14.0,19.0,-999,-99.99,,,-99.99,,2013-06-14 09:12:00,
2013-06-14 05:22:00,79.0,-99.9,29.90,WNW,289,14.0,19.0,-999,-99.99,,,-99.99,,2013-06-14 09:22:00,
2013-06-14 05:33:00,80.0,-99.9,29.90,West,273,12.0,17.0,-999,-99.99,,,-99.99,,2013-06-14 09:33:00,
2013-06-14 05:43:00,80.0,-99.9,29.90,West,267,13.0,19.0,-999,-99.99,,,-99.99,,2013-06-14 09:43:00,
2013-06-14 05:53:00,79.0,-99.9,29.90,West,259,15.0,19.0,-999,-99.99,,,-99.99,,2013-06-14 09:53:00,
2013-06-14 06:02:00,79.0,-99.9,29.90,West,259,15.0,19.0,-999,-99.99,,,-99.99,,2013-06-14 10:02:00,
2013-06-14 06:12:00,79.0,-99.9,29.89,WSW,254,14.0,18.0,-999,-99.99,,,-99.99,,2013-06-14 10:12:00,
2013-06-14 06:22:00,79.0,-99.9,29.89,WSW,253,13.0,19.0,-999,-99.99,,,-99.99,,2013-06-14 10:22:00,
2013-06-14 06:34:00,79.0,-99.9,29.90,West,259,13.0,17.0,-999,-99.99,,,-99.99,,2013-06-14 10:34:00,
2013-06-14 06:44:00,79.0,-99.9,29.90,West,262,14.0,18.0,-999,-99.99,,,-99.99,,2013-06-14 10:44:00,
2013-06-14 06:53:00,79.0,-99.9,29.90,West,268,13.0,16.0,-999,-99.99,,,-99.99,,2013-06-14 10:53:00,
2013-06-14 07:02:00,79.0,-99.9,29.90,West,268,13.0,16.0,-999,-99.99,,,-99.99,,2013-06-14 11:02:00,
2013-06-14 07:11:00,79.0,-99.9,29.90,West,267,13.0,17.0,-999,-99.99,,,-99.99,,2013-06-14 11:11:00,
2013-06-14 07:23:00,79.0,-99.9,29.90,West,267,14.0,15.0,-999,-99.99,,,-99.99,,2013-06-14 11:23:00,
2013-06-14 07:33:00,79.0,-99.9,29.90,West,265,12.0,16.0,-999,-99.99,,,-99.99,,2013-06-14 11:33:00,
2013-06-14 07:43:00,80.0,-99.9,29.91,West,271,10.0,14.0,-999,-99.99,,,-99.99,,2013-06-14 11:43:00,
2013-06-14 07:52:00,80.0,-99.9,29.91,West,270,9.0,12.0,-999,-99.99,,,-99.99,,2013-06-14 11:52:00,
2013-06-14 08:02:00,80.0,-99.9,29.91,West,265,10.0,12.0,-999,-99.99,,,-99.99,,2013-06-14 12:02:00,
2013-06-14 08:12:00,80.0,-99.9,29.91,West,265,10.0,12.0,-999,-99.99,,,-99.99,,2013-06-14 12:12:00,
2013-06-14 08:23:00,80.0,-99.9,29.91,West,265,11.0,15.0,-999,-99.99,,,-99.99,,2013-06-14 12:23:00,
2013-06-14 08:33:00,80.0,-99.9,29.92,WSW,254,11.0,14.0,-999,-99.99,,,-99.99,,2013-06-14 12:33:00,
2013-06-14 08:44:00,80.0,-99.9,29.92,West,262,11.0,16.0,-999,-99.99,,,-99.99,,2013-06-14 12:44:00,
2013-06-14 08:53:00,80.0,-99.9,29.92,West,264,16.0,20.0,-999,-99.99,,,-99.99,,2013-06-14 12:53:00,
2013-06-14 09:02:00,80.0,-99.9,29.92,West,264,16.0,20.0,-999,-99.99,,,-99.99,,2013-06-14 13:02:00,
2013-06-14 09:12:00,81.0,-99.9,29.92,West,265,11.0,16.0,-999,-99.99,,,-99.99,,2013-06-14 13:12:00,
2013-06-14 09:22:00,81.0,-99.9,29.92,West,269,14.0,20.0,-999,-99.99,,,-99.99,,2013-06-14 13:22:00,
2013-06-14 09:33:00,81.0,-99.9,29.92,West,269,14.0,20.0,-999,-99.99,,,-99.99,,2013-06-14 13:33:00,
2013-06-14 09:43:00,81.0,-99.9,29.93,West,272,12.0,16.0,-999,-99.99,,,-99.99,,2013-06-14 13:43:00,
2013-06-14 09:53:00,82.0,-99.9,29.93,West,277,12.0,16.0,-999,-99.99,,,-99.99,,2013-06-14 13:53:00,
2013-06-14 10:02:00,82.0,-99.9,29.93,West,276,13.0,16.0,-999,-99.99,,,-99.99,,2013-06-14 14:02:00,
2013-06-14 10:12:00,82.0,-99.9,29.93,West,272,13.0,17.0,-999,-99.99,,,-99.99,,2013-06-14 14:12:00,
2013-06-14 10:22:00,82.0,-99.9,29.94,West,268,12.0,15.0,-999,-99.99,,,-99.99,,2013-06-14 14:22:00,
2013-06-14 10:34:00,82.0,-99.9,29.94,West,270,10.0,15.0,-999,-99.99,,,-99.99,,2013-06-14 14:34:00,
2013-06-14 10:43:00,82.0,-99.9,29.94,West,268,11.0,14.0,-999,-99.99,,,-99.99,,2013-06-14 14:43:00,
2013-06-14 10:52:00,82.0,-99.9,29.93,West,263,8.0,11.0,-999,-99.99,,,-99.99,,2013-06-14 14:52:00,
2013-06-14 11:02:00,82.0,-99.9,29.93,West,280,13.0,14.0,-999,-99.99,,,-99.99,,2013-06-14 15:02:00,
2013-06-14 11:12:00,82.0,-99.9,29.93,West,275,9.0,12.0,-999,-99.99,,,-99.99,,2013-06-14 15:12:00,
2013-06-14 11:23:00,83.0,-99.9,29.92,West,279,9.0,13.0,-999,-99.99,,,-99.99,,2013-06-14 15:23:00,
2013-06-14 11:34:00,83.0,-99.9,29.92,WNW,289,5.0,10.0,-999,-99.99,,,-99.99,,2013-06-14 15:34:00,
2013-06-14 11:44:00,83.0,-99.9,29.92,WNW,289,5.0,10.0,-999,-99.99,,,-99.99,,2013-06-14 15:44:00,
2013-06-14 12:11:00,84.0,-99.9,29.93,WNW,301,6.0,10.0,-999,-99.99,,,-99.99,,2013-06-14 16:11:00,
2013-06-14 12:23:00,84.0,-99.9,29.93,West,267,7.0,11.0,-999,-99.99,,,-99.99,,2013-06-14 16:23:00,
2013-06-14 12:33:00,84.0,-99.9,29.93,West,261,10.0,13.0,-999,-99.99,,,-99.99,,2013-06-14 16:33:00,
2013-06-14 12:43:00,85.0,-99.9,29.93,West,275,9.0,11.0,-999,-99.99,,,-99.99,,2013-06-14 16:43:00,
2013-06-14 12:53:00,85.0,-99.9,29.93,West,276,6.0,11.0,-999,-99.99,,,-99.99,,2013-06-14 16:53:00,
2013-06-14 13:02:00,85.0,-99.9,29.92,WSW,256,6.0,10.0,-999,-99.99,,,-99.99,,2013-06-14 17:02:00,
2013-06-14 13:12:00,85.0,-99.9,29.92,WSW,256,6.0,10.0,-999,-99.99,,,-99.99,,2013-06-14 17:12:00,
2013-06-14 13:23:00,86.0,-99.9,29.92,WSW,257,6.0,10.0,-999,-99.99,,,-99.99,,2013-06-14 17:23:00,
2013-06-14 13:34:00,86.0,-99.9,29.92,WSW,257,6.0,10.0,-999,-99.99,,,-99.99,,2013-06-14 17:34:00,
2013-06-14 13:43:00,87.0,-99.9,29.91,West,266,7.0,11.0,-999,-99.99,,,-99.99,,2013-06-14 17:43:00,
2013-06-14 13:54:00,87.0,-99.9,29.91,West,276,8.0,11.0,-999,-99.99,,,-99.99,,2013-06-14 17:54:00,
2013-06-14 14:02:00,87.0,-99.9,29.91,West,276,8.0,11.0,-999,-99.99,,,-99.99,,2013-06-14 18:02:00,
2013-06-14 14:12:00,88.0,-99.9,29.91,West,264,9.0,12.0,-999,-99.99,,,-99.99,,2013-06-14 18:12:00,
2013-06-14 14:22:00,88.0,-99.9,29.91,West,272,8.0,12.0,-999,-99.99,,,-99.99,,2013-06-14 18:22:00,
2013-06-14 14:33:00,86.0,-99.9,29.90,ESE,106,7.0,9.0,-999,-99.99,,,-99.99,,2013-06-14 18:33:00,
2013-06-14 14:43:00,85.0,-99.9,29.90,SE,133,7.0,12.0,-999,-99.99,,,-99.99,,2013-06-14 18:43:00,
2013-06-14 14:52:00,84.0,-99.9,29.90,SE,142,9.0,14.0,-999,-99.99,,,-99.99,,2013-06-14 18:52:00,
2013-06-14 15:02:00,84.0,-99.9,29.90,SE,142,9.0,14.0,-999,-99.99,,,-99.99,,2013-06-14 19:02:00,
2013-06-14 15:11:00,86.0,-99.9,29.88,East,92,10.0,13.0,-999,-99.99,,,-99.99,,2013-06-14 19:11:00,
2013-06-14 15:22:00,86.0,-99.9,29.88,East,93,10.0,15.0,-999,-99.99,,,-99.99,,2013-06-14 19:22:00,
2013-06-14 15:33:00,85.0,-99.9,29.88,ESE,103,11.0,14.0,-999,-99.99,,,-99.99,,2013-06-14 19:33:00,
2013-06-14 15:43:00,85.0,-99.9,29.89,SE,132,10.0,17.0,-999,-99.99,,,-99.99,,2013-06-14 19:43:00,
2013-06-14 15:53:00,85.0,-99.9,29.89,SE,138,7.0,14.0,-999,-99.99,,,-99.99,,2013-06-14 19:53:00,
2013-06-14 16:02:00,85.0,-99.9,29.89,SE,138,7.0,14.0,-999,-99.99,,,-99.99,,2013-06-14 20:02:00,
2013-06-14 16:11:00,86.0,-99.9,29.88,SSE,156,7.0,11.0,-999,-99.99,,,-99.99,,2013-06-14 20:11:00,
2013-06-14 16:22:00,86.0,-99.9,29.87,ESE,107,7.0,10.0,-999,-99.99,,,-99.99,,2013-06-14 20:22:00,
2013-06-14 16:33:00,86.0,-99.9,29.87,East,97,6.0,9.0,-999,-99.99,,,-99.99,,2013-06-14 20:33:00,
2013-06-14 16:43:00,85.0,-99.9,29.86,ESE,102,4.0,11.0,-999,-99.99,,,-99.99,,2013-06-14 20:43:00,
2013-06-14 16:53:00,80.0,-99.9,29.89,WNW,298,23.0,38.0,-999,-99.99,,,-99.99,,2013-06-14 20:53:00,
2013-06-14 17:02:00,80.0,-99.9,29.89,WNW,298,23.0,38.0,-999,-99.99,,,-99.99,,2013-06-14 21:02:00,
2013-06-14 17:12:00,76.0,-99.9,29.94,NW,304,13.0,23.0,-999,-99.99,,,-99.99,,2013-06-14 21:12:00,
2013-06-14 17:22:00,74.0,-99.9,29.92,SSE,165,5.0,16.0,-999,-99.99,,,-99.99,,2013-06-14 21:22:00,
2013-06-14 17:34:00,74.0,-99.9,29.93,SSE,160,6.0,10.0,-999,-99.99,,,-99.99,,2013-06-14 21:34:00,
2013-06-14 17:43:00,74.0,-99.9,29.93,SSW,204,3.0,11.0,-999,-99.99,,,-99.99,,2013-06-14 21:43:00,
2013-06-14 17:52:00,75.0,-99.9,29.91,SW,214,8.0,11.0,-999,-99.99,,,-99.99,,2013-06-14 21:52:00,
2013-06-14 18:02:00,75.0,-99.9,29.91,SSW,209,6.0,10.0,-999,-99.99,,,-99.99,,2013-06-14 22:02:00,
2013-06-14 18:12:00,74.0,-99.9,29.92,SW,231,3.0,4.0,-999,-99.99,,,-99.99,,2013-06-14 22:12:00,
2013-06-14 18:22:00,75.0,-99.9,29.95,West,261,5.0,10.0,-999,-99.99,,,-99.99,,2013-06-14 22:22:00,
2013-06-14 18:33:00,75.0,-99.9,29.94,West,272,8.0,13.0,-999,-99.99,,,-99.99,,2013-06-14 22:33:00,
2013-06-14 18:43:00,75.0,-99.9,29.93,WNW,284,6.0,14.0,-999,-99.99,,,-99.99,,2013-06-14 22:43:00,
2013-06-14 18:53:00,75.0,-99.9,29.93,WNW,283,8.0,13.0,-999,-99.99,,,-99.99,,2013-06-14 22:53:00,
2013-06-14 19:02:00,75.0,-99.9,29.92,West,276,8.0,13.0,-999,-99.99,,,-99.99,,2013-06-14 23:02:00,
2013-06-14 19:12:00,76.0,-99.9,29.91,NW,322,4.0,6.0,-999,-99.99,,,-99.99,,2013-06-14 23:12:00,
2013-06-14 19:22:00,76.0,-99.9,29.92,North,353,7.0,9.0,-999,-99.99,,,-99.99,,2013-06-14 23:22:00,
2013-06-14 19:33:00,76.0,-99.9,29.92,North,353,7.0,9.0,-999,-99.99,,,-99.99,,2013-06-14 23:33:00,
2013-06-14 19:43:00,77.0,-99.9,29.95,WNW,286,4.0,8.0,-999,-99.99,,,-99.99,,2013-06-14 23:43:00,
2013-06-14 19:52:00,77.0,-99.9,29.95,WNW,286,4.0,8.0,-999,-99.99,,,-99.99,,2013-06-14 23:52:00,
2013-06-14 20:12:00,77.0,-99.9,29.94,NE,37,6.0,8.0,-999,-99.99,,,-99.99,,2013-06-15 00:12:00,
2013-06-14 20:23:00,77.0,-99.9,29.94,NE,48,2.0,6.0,-999,-99.99,,,-99.99,,2013-06-15 00:23:00,
2013-06-14 20:34:00,76.0,-99.9,29.94,WNW,297,3.0,5.0,-999,-99.99,,,-99.99,,2013-06-15 00:34:00,
2013-06-14 20:43:00,76.0,-99.9,29.96,WSW,243,3.0,4.0,-999,-99.99,,,-99.99,,2013-06-15 00:43:00,
2013-06-14 20:53:00,76.0,-99.9,29.97,NNW,343,1.0,3.0,-999,-99.99,,,-99.99,,2013-06-15 00:53:00,
2013-06-14 21:02:00,76.0,-99.9,29.97,NE,35,5.0,6.0,-999,-99.99,,,-99.99,,2013-06-15 01:02:00,
2013-06-14 21:11:00,76.0,-99.9,29.97,SW,221,0.0,1.0,-999,-99.99,,,-99.99,,2013-06-15 01:11:00,
2013-06-14 21:22:00,76.0,-99.9,29.96,NE,40,2.0,2.0,-999,-99.99,,,-99.99,,2013-06-15 01:22:00,
2013-06-14 21:33:00,76.0,-99.9,29.97,SE,135,1.0,2.0,-999,-99.99,,,-99.99,,2013-06-15 01:33:00,
2013-06-14 21:43:00,76.0,-99.9,29.98,ESE,120,-999.0,2.0,-999,-99.99,,,-99.99,,2013-06-15 01:43:00,
2013-06-14 21:54:00,77.0,-99.9,29.98,WNW,301,3.0,4.0,-999,-99.99,,,-99.99,,2013-06-15 01:54:00,
2013-06-14 22:02:00,76.0,-99.9,29.98,North,355,4.0,5.0,-999,-99.99,,,-99.99,,2013-06-15 02:02:00,
2013-06-14 22:12:00,76.0,-99.9,29.98,North,-999,6.0,7.0,-999,-99.99,,,-99.99,,2013-06-15 02:12:00,
2013-06-14 22:23:00,76.0,-99.9,29.99,NNW,345,2.0,5.0,-999,-99.99,,,-99.99,,2013-06-15 02:23:00,
2013-06-14 22:34:00,76.0,-99.9,29.99,NNW,345,2.0,5.0,-999,-99.99,,,-99.99,,2013-06-15 02:34:00,
2013-06-14 22:43:00,76.0,-99.9,29.98,NNE,29,5.0,6.0,-999,-99.99,,,-99.99,,2013-06-15 02:43:00,
2013-06-14 22:53:00,77.0,-99.9,29.99,ENE,72,8.0,9.0,-999,-99.99,,,-99.99,,2013-06-15 02:53:00,
2013-06-14 23:02:00,78.0,-99.9,30.00,East,81,7.0,10.0,-999,-99.99,,,-99.99,,2013-06-15 03:02:00,
2013-06-14 23:11:00,78.0,-99.9,30.00,East,81,7.0,10.0,-999,-99.99,,,-99.99,,2013-06-15 03:11:00,
2013-06-14 23:24:00,78.0,-99.9,30.00,East,84,6.0,11.0,-999,-99.99,,,-99.99,,2013-06-15 03:24:00,
2013-06-14 23:33:00,79.0,-99.9,30.00,ENE,75,11.0,13.0,-999,-99.99,,,-99.99,,2013-06-15 03:33:00,
2013-06-14 23:44:00,80.0,-99.9,30.00,ENE,75,15.0,19.0,-999,-99.99,,,-99.99,,2013-06-15 03:44:00,
2013-06-14 23:53:00,79.0,-99.9,30.00,ENE,77,15.0,19.0,-999,-99.99,,,-99.99,,2013-06-15 03:53:00,